Date String (YYYY-MM-DD hh:mm:ss) UTC,Instrument flags,Ambient pressure (hPa),Sample flow (lpm),Bypass flow (lpm),Sample temperature (°C),Ambient temperature (°C),ASC tube jacket temperature (°C),LED temperature (°C),Box temperature (°C),Sample RH (%),Span deviation,Mass concentration (μg/m³),Mass concentration (μg/m³),Mass concentration (μg/m³)
DateTimeUTC,F1_M11,P_M11,Q1_M11,Q2_M11,T1_M11,T2_M11,T3_M11,T4_M11,T5_M11,U1_M11,ZSPAN_M11,X0_M11,X2_M11,X1_M11
2022-03-09 06:00:00,,0820.6,4.99,0.00,22.2,21.4,00.0,31.2,23.8,09.5,0000.0,0008.05,0003.76,0003.40
2022-03-09 06:01:00,,0820.4,5.00,0.00,22.2,21.8,00.0,31.2,23.9,09.5,0000.0,0007.98,0003.74,0003.38
2022-03-09 06:02:00,,0820.4,5.01,0.00,22.3,22.6,00.0,31.3,24.2,09.5,0000.0,0007.43,0003.69,0003.35
2022-03-09 06:03:00,,0820.4,5.00,0.00,22.4,23.2,00.0,31.3,24.4,09.4,0000.0,0007.42,0003.67,0003.34
2022-03-09 06:04:00,,0820.3,5.00,0.00,22.5,23.0,00.0,31.3,24.4,09.4,0000.0,0007.27,0003.64,0003.32
2022-03-09 06:05:00,,0820.3,5.00,0.00,22.5,22.7,00.0,31.3,24.4,09.4,0000.0,0007.22,0003.62,0003.30
2022-03-09 06:06:00,,0820.4,5.00,0.00,22.5,22.4,00.0,31.4,24.3,09.4,0000.0,0007.07,0003.59,0003.28
2022-03-09 06:07:00,,0820.3,5.00,0.00,22.5,22.2,00.0,31.4,24.2,09.4,0000.0,0006.91,0003.57,0003.27
2022-03-09 06:08:00,,0820.3,5.00,0.00,22.4,22.0,00.0,31.4,24.2,09.4,0000.0,0005.95,0003.53,0003.27
2022-03-09 06:09:00,,0820.3,5.01,0.00,22.4,21.9,00.0,31.4,24.1,09.4,0000.0,0006.44,0003.53,0003.26
2022-03-09 06:10:00,,0820.2,5.00,0.00,22.4,21.8,00.0,31.3,24.1,09.4,0000.0,0007.43,0003.54,0003.27
2022-03-09 06:11:00,,0820.2,4.98,0.00,22.4,21.7,00.0,31.3,24.1,09.5,0000.0,0007.43,0003.55,0003.28
2022-03-09 06:12:00,,0820.2,5.01,0.00,22.3,21.6,00.0,31.3,24.0,09.5,0000.0,0007.37,0003.53,0003.27
2022-03-09 06:13:00,,0820.3,5.00,0.00,22.3,21.5,00.0,31.3,24.0,09.5,0000.0,0007.26,0003.53,0003.27
2022-03-09 06:14:00,,0820.3,5.00,0.00,22.3,21.4,00.0,31.3,24.0,09.5,0000.0,0007.06,0003.54,0003.26
2022-03-09 06:15:00,,0820.4,5.01,0.00,22.2,21.4,00.0,31.3,23.9,09.6,0000.0,0007.22,0003.53,0003.25
2022-03-09 06:16:00,,0820.3,4.99,0.00,22.2,21.4,00.0,31.3,23.9,09.6,0000.0,0007.50,0003.53,0003.25
2022-03-09 06:17:00,,0820.3,4.99,0.00,22.2,21.5,00.0,31.3,23.9,09.6,0000.0,0007.51,0003.53,0003.24
2022-03-09 06:18:00,,0820.3,5.00,0.00,22.3,22.2,00.0,31.3,24.1,09.5,0000.0,0007.87,0003.54,0003.24
2022-03-09 06:19:00,,0820.4,5.00,0.00,22.4,23.0,00.0,31.4,24.4,09.5,0000.0,0008.51,0003.55,0003.22
2022-03-09 06:20:00,,0820.3,4.99,0.00,22.6,23.2,00.0,31.4,24.6,09.4,0000.0,0008.48,0003.54,0003.22
2022-03-09 06:21:00,,0820.3,5.00,0.00,22.6,22.9,00.0,31.4,24.5,09.4,0000.0,0007.72,0003.52,0003.20
2022-03-09 06:22:00,,0820.3,4.99,0.00,22.6,22.6,00.0,31.4,24.5,09.4,0000.0,0007.73,0003.53,0003.19
2022-03-09 06:23:00,,0820.2,5.00,0.00,22.6,22.4,00.0,31.4,24.4,09.4,0000.0,0007.66,0003.51,0003.18
2022-03-09 06:24:00,,0820.2,5.01,0.00,22.5,22.2,00.0,31.4,24.3,09.4,0000.0,0007.68,0003.53,0003.17
2022-03-09 06:25:00,,0820.2,5.00,0.00,22.5,22.0,00.0,31.4,24.2,09.5,0000.0,0007.74,0003.52,0003.18
2022-03-09 06:26:00,,0820.3,4.99,0.00,22.5,21.8,00.0,31.4,24.2,09.5,0000.0,0007.70,0003.51,0003.17
2022-03-09 06:27:00,,0820.2,5.00,0.00,22.4,21.7,00.0,31.4,24.2,09.5,0000.0,0007.48,0003.51,0003.18
2022-03-09 06:28:00,,0820.2,5.01,0.00,22.4,21.7,00.0,31.4,24.1,09.5,0000.0,0007.86,0003.51,0003.18
2022-03-09 06:29:00,,0820.2,5.00,0.00,22.4,21.6,00.0,31.4,24.1,09.5,0000.0,0007.62,0003.51,0003.19
2022-03-09 06:30:00,,0820.2,5.00,0.00,22.3,21.6,00.0,31.4,24.1,09.6,0000.0,0006.67,0003.50,0003.19
2022-03-09 06:31:00,,0820.2,4.99,0.00,22.3,21.5,00.0,31.4,24.0,09.6,0000.0,0006.64,0003.49,0003.20
2022-03-09 06:32:00,,0820.3,5.01,0.00,22.3,21.5,00.0,31.4,24.0,09.6,0000.0,0006.20,0003.49,0003.20
2022-03-09 06:33:00,,0820.2,5.00,0.00,22.3,21.5,00.0,31.3,24.0,09.6,0000.0,0006.14,0003.49,0003.20
2022-03-09 06:34:00,,0820.2,5.01,0.00,22.3,21.5,00.0,31.3,24.0,09.7,0000.0,0006.31,0003.52,0003.21
2022-03-09 06:35:00,,0820.1,5.00,0.00,22.3,22.1,00.0,31.3,24.1,09.6,0000.0,0006.32,0003.51,0003.22
2022-03-09 06:36:00,,0820.0,4.99,0.00,22.5,22.9,00.0,31.4,24.4,09.6,0000.0,0006.15,0003.51,0003.22
2022-03-09 06:37:00,,0820.0,5.01,0.00,22.6,23.2,00.0,31.4,24.5,09.5,0000.0,0006.14,0003.52,0003.22
2022-03-09 06:38:00,,0820.0,4.99,0.00,22.6,22.9,00.0,31.4,24.5,09.5,0000.0,0006.12,0003.54,0003.21
2022-03-09 06:39:00,,0820.0,5.01,0.00,22.6,22.6,00.0,31.5,24.5,09.5,0000.0,0005.30,0003.53,0003.21
2022-03-09 06:40:00,,0820.1,4.99,0.00,22.6,22.4,00.0,31.5,24.4,09.5,0000.0,0005.23,0003.52,0003.22
2022-03-09 06:41:00,,0820.1,5.01,0.00,22.6,22.2,00.0,31.5,24.3,09.6,0000.0,0005.15,0003.53,0003.23
2022-03-09 06:42:00,,0820.1,4.99,0.00,22.5,22.0,00.0,31.5,24.3,09.6,0000.0,0005.08,0003.53,0003.23
2022-03-09 06:43:00,,0820.0,4.99,0.00,22.5,21.9,00.0,31.5,24.3,09.6,0000.0,0005.30,0003.57,0003.24
2022-03-09 06:44:00,,0820.0,5.00,0.00,22.5,21.8,00.0,31.5,24.2,09.6,0000.0,0005.83,0003.59,0003.24
2022-03-09 06:45:00,,0820.0,5.01,0.00,22.5,21.8,00.0,31.5,24.2,09.6,0000.0,0005.96,0003.60,0003.24
2022-03-09 06:46:00,,0820.0,4.99,0.00,22.4,21.7,00.0,31.4,24.1,09.6,0000.0,0005.89,0003.59,0003.25
2022-03-09 06:47:00,,0820.0,5.01,0.00,22.4,21.6,00.0,31.4,24.1,09.6,0000.0,0006.47,0003.57,0003.25
2022-03-09 06:48:00,,0820.0,5.01,0.00,22.4,21.6,00.0,31.4,24.1,09.6,0000.0,0006.36,0003.56,0003.26
2022-03-09 06:49:00,,0820.0,4.99,0.00,22.3,21.5,00.0,31.4,24.1,09.6,0000.0,0006.79,0003.56,0003.26
2022-03-09 06:50:00,,0820.1,5.01,0.00,22.3,21.4,00.0,31.4,24.0,09.6,0000.0,0007.33,0003.58,0003.26
2022-03-09 06:51:00,,0820.1,5.00,0.00,22.3,21.4,00.0,31.4,24.0,09.7,0000.0,0007.44,0003.62,0003.26
2022-03-09 06:52:00,,0820.0,4.99,0.00,22.3,21.5,00.0,31.4,24.0,09.7,0000.0,0008.48,0003.62,0003.26
2022-03-09 06:53:00,,0820.0,5.00,0.00,22.3,22.0,00.0,31.4,24.1,09.6,0000.0,0008.46,0003.60,0003.25
2022-03-09 06:54:00,,0820.0,5.00,0.00,22.5,22.8,00.0,31.4,24.3,09.6,0000.0,0008.76,0003.57,0003.25
2022-03-09 06:55:00,,0820.0,4.99,0.00,22.6,23.3,00.0,31.5,24.6,09.5,0000.0,0008.70,0003.53,0003.26
2022-03-09 06:56:00,,0820.0,5.01,0.00,22.6,23.0,00.0,31.5,24.6,09.5,0000.0,0008.59,0003.53,0003.26
2022-03-09 06:57:00,,0820.0,5.00,0.00,22.6,22.7,00.0,31.5,24.5,09.5,0000.0,0008.83,0003.53,0003.26
2022-03-09 06:58:00,,0820.0,5.00,0.00,22.6,22.5,00.0,31.5,24.4,09.5,0000.0,0008.51,0003.55,0003.26
2022-03-09 06:59:00,,0820.0,5.00,0.00,22.6,22.2,00.0,31.5,24.4,09.5,0000.0,0008.51,0003.56,0003.26
